Location: East Guldeford
(50.9500°N, 0.7500°E)
Time: 08:58:30
(UTC+00:00)

Cosmos 2084 Rocket - Pass Details

Date: 12 May 2021
Orbit: 521 x 658 km, 62.8° (Epoch: 16 June)

Event Time Altitude Azimuth Distance (km) Brightness Sun altitude
Rises 21:58:19 0° 314° (NW) 2,759 8.4 -16.2°
Reaches altitude 10° 22:00:31 10° 316° (NW) 1,881 7.2 -16.4°
Maximum altitude 22:04:46 82° 44° (NE) 602 3.4 -16.7°
Enters shadow 22:06:50 31° 129° (SE) 1,062 4.2 -16.8°
